Weather History for KDTL - December, 2013

Change the Weather History Date:

Friday, December 27, 2013

  Actual Average Record
Temperature  
Mean Temperature 30 °F -  
Max Temperature 35 °F 19 °F 41 °F (2006)
Min Temperature 26 °F 0 °F -37 °F (1933)
Degree Days  
Heating Degree Days 34    
Moisture  
Dew Point 29 °F    
Average Humidity 91    
Maximum Humidity 100    
Minimum Humidity 80    
Precipitation  
Precipitation 0.00 in - - ()
Sea Level Pressure  
Sea Level Pressure 29.90 in    
Wind  
Wind Speed 10 mph (WSW)    
Max Wind Speed 21 mph    
Max Gust Speed 26 mph    
Visibility 10 miles    
Events      
Averages and records for this station are not official NWS values.
T = Trace of Precipitation, MM = Missing Value Source: NWS Daily Summary

Daily Weather History Graph

Daily Weather History Graph

Search for Another Location

Airport or City:

Trip Planner

Search our weather history database for the weather conditions in past years. The results will help you decide how hot, cold, wet, or windy it might be!

Date:

Astronomy

Dec. 27, 2013 Rise Set
Actual Time 8:08 AM CST 4:41 PM CST
Civil Twilight 7:32 AM CST 5:16 PM CST
Nautical Twilight 6:54 AM CST 5:55 PM CST
Astronomical Twilight 6:17 AM CST 6:32 PM CST
Moon 2:28 AM CST (12/27) 1:04 PM CST (12/27)
Length of Visible Light 9h 44m
Length of Day
8h 33m
Waning Crescent, 28% of the Moon is Illuminated
Dec 27
Waning Crescent
Jan 1
New
Jan 7
First Quarter
Jan 15
Full
Jan 23
Last Quarter

Hourly Weather History & Observations

Time (CST) Temp. Windchill Dew Point Humidity Pressure Visibility Wind Dir Wind Speed Gust Speed Precip Events Conditions
12:15 AM 26.6 °F 17.5 °F 24.8 °F 93% 30.03 in 4.0 mi SSW 9.2 mph - N/A   Overcast
12:34 AM 26.6 °F 19.1 °F 24.8 °F 93% 30.02 in 4.0 mi South 6.9 mph - N/A   Overcast
12:55 AM 26.6 °F 20.0 °F 24.8 °F 93% 30.02 in 5.0 mi SSW 5.8 mph - N/A   Overcast
1:14 AM 26.6 °F 20.0 °F 26.6 °F 100% 30.01 in 7.0 mi South 5.8 mph - N/A   Overcast
1:35 AM 26.6 °F 19.1 °F 26.6 °F 100% 30.00 in 10.0 mi South 6.9 mph - N/A   Overcast
1:55 AM 26.6 °F 18.2 °F 26.6 °F 100% 30.00 in 10.0 mi SSW 8.1 mph - N/A   Overcast
2:15 AM 28.4 °F 19.1 °F 26.6 °F 93% 29.99 in 10.0 mi SSW 10.4 mph - N/A   Overcast
2:35 AM 28.4 °F 18.0 °F 26.6 °F 93% 29.98 in 10.0 mi SSW 12.7 mph 16.1 mph N/A   Overcast
2:54 AM 28.4 °F 18.5 °F 26.6 °F 93% 29.97 in 10.0 mi SSW 11.5 mph 16.1 mph N/A   Overcast
3:15 AM 28.4 °F 17.5 °F 28.4 °F 100% 29.96 in 10.0 mi SSW 13.8 mph - N/A   Overcast
3:35 AM 30.2 °F 19.3 °F 28.4 °F 93% 29.96 in 10.0 mi SSW 15.0 mph 19.6 mph N/A   Overcast
3:55 AM 30.2 °F 20.8 °F 28.4 °F 93% 29.95 in 10.0 mi SSW 11.5 mph - N/A   Mostly Cloudy
4:15 AM 28.4 °F 17.5 °F 28.4 °F 100% 29.94 in 10.0 mi SSW 13.8 mph 18.4 mph N/A   Scattered Clouds
4:35 AM 28.4 °F 18.5 °F 26.6 °F 93% 29.93 in 10.0 mi South 11.5 mph - N/A   Clear
4:55 AM 28.4 °F 18.5 °F 26.6 °F 93% 29.90 in 10.0 mi South 11.5 mph - N/A   Clear
5:15 AM 28.4 °F 19.1 °F 26.6 °F 93% 29.90 in 10.0 mi South 10.4 mph - N/A   Clear
5:35 AM 26.6 °F 16.2 °F 26.6 °F 100% 29.88 in 10.0 mi South 11.5 mph - N/A   Clear
5:55 AM 28.4 °F 18.0 °F 26.6 °F 93% 29.87 in 10.0 mi South 12.7 mph - N/A   Clear
6:15 AM 28.4 °F 18.5 °F 26.6 °F 93% 29.85 in 10.0 mi South 11.5 mph - N/A   Clear
6:35 AM 28.4 °F 19.1 °F 26.6 °F 93% 29.84 in 10.0 mi South 10.4 mph - N/A   Scattered Clouds
6:55 AM 28.4 °F 18.5 °F 26.6 °F 93% 29.82 in 10.0 mi South 11.5 mph - N/A   Scattered Clouds
7:15 AM 30.2 °F 20.8 °F 26.6 °F 86% 29.81 in 10.0 mi South 11.5 mph - N/A   Scattered Clouds
7:34 AM 32.0 °F 23.6 °F 28.4 °F 87% 29.81 in 10.0 mi South 10.4 mph - N/A   Scattered Clouds
7:55 AM 33.8 °F 24.3 °F 28.4 °F 81% 29.81 in 10.0 mi SW 13.8 mph 19.6 mph N/A   Scattered Clouds
8:14 AM 32.0 °F 22.1 °F 28.4 °F 87% 29.82 in 10.0 mi SW 13.8 mph 18.4 mph N/A   Scattered Clouds
8:35 AM 32.0 °F 22.5 °F 28.4 °F 87% 29.82 in 10.0 mi SW 12.7 mph - N/A   Scattered Clouds
8:54 AM 32.0 °F 24.2 °F 26.6 °F 80% 29.82 in 10.0 mi SW 9.2 mph - N/A   Clear
9:15 AM 32.0 °F 24.2 °F 28.4 °F 87% 29.81 in 10.0 mi SW 9.2 mph - N/A   Clear
9:35 AM 32.0 °F 24.2 °F 28.4 °F 87% 29.81 in 10.0 mi SW 9.2 mph - N/A   Clear
9:54 AM 33.8 °F 25.8 °F 28.4 °F 81% 29.81 in 10.0 mi SW 10.4 mph - N/A   Clear
10:15 AM 33.8 °F 24.8 °F 28.4 °F 81% 29.81 in 10.0 mi WSW 12.7 mph 21.9 mph N/A   Clear
10:35 AM 33.8 °F 24.8 °F 28.4 °F 81% 29.81 in 10.0 mi WSW 12.7 mph 17.3 mph N/A   Clear
10:54 AM 33.8 °F 25.8 °F 28.4 °F 81% 29.83 in 10.0 mi WSW 10.4 mph 16.1 mph N/A   Clear
11:15 AM 33.8 °F 24.8 °F 30.2 °F 87% 29.83 in 10.0 mi West 12.7 mph 20.7 mph N/A   Clear
11:35 AM 35.6 °F 27.5 °F 30.2 °F 81% 29.83 in 10.0 mi West 11.5 mph - N/A   Clear
11:54 AM 35.6 °F 27.1 °F 30.2 °F 81% 29.83 in 10.0 mi West 12.7 mph 23.0 mph N/A   Clear
12:15 PM 35.6 °F 26.6 °F 30.2 °F 81% 29.83 in 10.0 mi West 13.8 mph 23.0 mph N/A   Clear
12:35 PM 35.6 °F 26.2 °F 32.0 °F 87% 29.83 in 10.0 mi West 15.0 mph 18.4 mph N/A   Clear
12:55 PM 35.6 °F 26.2 °F 32.0 °F 87% 29.84 in 10.0 mi WNW 15.0 mph 19.6 mph N/A   Clear
1:15 PM 35.6 °F 25.5 °F 32.0 °F 87% 29.84 in 10.0 mi WNW 17.3 mph 24.2 mph N/A   Clear
1:35 PM 35.6 °F 25.5 °F 32.0 °F 87% 29.85 in 10.0 mi WNW 17.3 mph 21.9 mph N/A   Mostly Cloudy
1:55 PM 35.6 °F 24.5 °F 32.0 °F 87% 29.85 in 10.0 mi NW 20.7 mph 26.5 mph N/A   Overcast
2:15 PM 35.6 °F 26.2 °F 32.0 °F 87% 29.86 in 10.0 mi NW 15.0 mph - N/A   Mostly Cloudy
2:34 PM 35.6 °F 26.2 °F 32.0 °F 87% 29.87 in 10.0 mi NW 15.0 mph 20.7 mph N/A   Scattered Clouds
2:55 PM 35.6 °F 26.6 °F 32.0 °F 87% 29.87 in 10.0 mi NW 13.8 mph 18.4 mph N/A   Scattered Clouds
3:15 PM 33.8 °F 25.3 °F 32.0 °F 93% 29.88 in 10.0 mi NW 11.5 mph 17.3 mph N/A   Clear
3:34 PM 33.8 °F 25.8 °F 32.0 °F 93% 29.89 in 10.0 mi NW 10.4 mph - N/A   Clear
3:55 PM 33.8 °F 26.4 °F 32.0 °F 93% 29.89 in 10.0 mi NNW 9.2 mph - N/A   Clear
4:15 PM 33.8 °F 25.8 °F 32.0 °F 93% 29.90 in 10.0 mi NNW 10.4 mph - N/A   Mostly Cloudy
4:34 PM 33.8 °F 24.8 °F 32.0 °F 93% 29.91 in 10.0 mi NW 12.7 mph - N/A   Overcast
4:55 PM 33.8 °F 24.3 °F 32.0 °F 93% 29.92 in 10.0 mi NNW 13.8 mph - N/A   Overcast
5:14 PM 33.8 °F 24.8 °F 32.0 °F 93% 29.92 in 10.0 mi NNW 12.7 mph - N/A   Overcast
5:35 PM 33.8 °F 24.8 °F 32.0 °F 93% 29.94 in 10.0 mi NNW 12.7 mph - N/A   Overcast
5:55 PM 32.0 °F 22.5 °F 32.0 °F 100% 29.94 in 10.0 mi NNW 12.7 mph - N/A   Overcast
6:15 PM 32.0 °F 23.0 °F 32.0 °F 100% 29.94 in 10.0 mi NNW 11.5 mph - N/A   Overcast
6:35 PM 32.0 °F 25.6 °F 32.0 °F 100% 29.94 in 10.0 mi North 6.9 mph - N/A   Overcast
6:55 PM 32.0 °F 26.4 °F 32.0 °F 100% 29.95 in 10.0 mi North 5.8 mph - N/A   Overcast
7:15 PM 32.0 °F - 30.2 °F 93% 29.94 in 10.0 mi Calm Calm - N/A   Overcast
7:34 PM 32.0 °F 27.5 °F 30.2 °F 93% 29.95 in 10.0 mi North 4.6 mph - N/A   Overcast
7:55 PM 32.0 °F 28.7 °F 30.2 °F 93% 29.93 in 10.0 mi North 3.5 mph - N/A   Overcast
8:15 PM 32.0 °F 28.7 °F 30.2 °F 93% 29.94 in 10.0 mi North 3.5 mph - N/A   Overcast
8:34 PM 32.0 °F 27.5 °F 30.2 °F 93% 29.94 in 10.0 mi North 4.6 mph - N/A   Overcast
8:55 PM 32.0 °F - 30.2 °F 93% 29.94 in 10.0 mi Calm Calm - N/A   Overcast
9:14 PM 32.0 °F - 30.2 °F 93% 29.93 in 10.0 mi Calm Calm - N/A   Overcast
9:35 PM 32.0 °F - 30.2 °F 93% 29.92 in 10.0 mi Calm Calm - N/A   Overcast
9:55 PM 32.0 °F - 30.2 °F 93% 29.92 in 10.0 mi Calm Calm - N/A   Overcast
10:14 PM 32.0 °F - 30.2 °F 93% 29.93 in 10.0 mi Calm Calm - N/A   Overcast
10:35 PM 32.0 °F - 30.2 °F 93% 29.93 in 10.0 mi Calm Calm - N/A   Overcast
10:55 PM 32.0 °F - 30.2 °F 93% 29.92 in 10.0 mi Calm Calm - N/A   Overcast
11:14 PM 32.0 °F - 30.2 °F 93% 29.91 in 10.0 mi Calm Calm - N/A   Overcast
11:35 PM 32.0 °F - 30.2 °F 93% 29.91 in 10.0 mi Calm Calm - N/A   Overcast
11:54 PM 32.0 °F 28.7 °F 30.2 °F 93% 29.91 in 10.0 mi SSW 3.5 mph - N/A   Overcast